Home   Weather   Mesa   Past weeks

Flag for USA Past Weather in Mesa, Arizona, USA — Yesterday and Last 2 Weeks

Now
75 °F

Sunny.


Feels Like: 78 °F
Forecast: 72 / 94 °F
Wind: 3 mph from Southeast

Location: Williams Gateway Airport

Current Time: Sep 30, 2016 at 8:18:53 AM

Latest Report: Sep 30, 2016 at 7:47 AM


Visibility: 45 mi

Pressure: 30.09 "Hg

Humidity: 54%

Dew Point: 57 °F

Location of MesaLocation

Past Weather in Mesa — Graph

°F

Mesa Temperature Yesterday

Maximum temperature yesterday: 91 °F (at 3:47 PM)
Minimum temperature yesterday: 73 °F (at 4:47 AM)
Average temperature yesterday: 80 °F

High & Low Weather Summary for the Past Weeks

 TemperatureHumidityPressure
High100 °F (Sep 18, 2:47 PM)94% (Sep 21, 3:55 AM)30.16 "Hg (Sep 21, 3:55 AM)
Low55 °F (Sep 24, 4:15 AM)7% (Sep 23, 5:47 PM)29.76 "Hg (Sep 22, 6:47 PM)
Average77 °F38%29.95 "Hg
* Reported Sep 15 6:50 AM — Sep 30 6:47 AM, Mesa, Weather by CustomWeather, © 2016

Note: Actual official high and low records may vary slightly from our data, if they occured in-between our weather recording intervals... More about our weather records

Advertising

Mesa Weather History for the Previous 24 Hours

Scroll right to see more
 ConditionsComfort  
Time TempWeatherWind HumidityBarometerVisibility
6:47 AM
Fri, Sep 30
70 °FPassing clouds.No wind64%30.07 "Hg45 mi
5:50 AM70 °FPassing clouds.5 mph64%30.06 "Hg20 mi
4:50 AM72 °FPassing clouds.5 mph61%30.05 "Hg20 mi
4:35 AM70 °FClear.6 mph64%30.05 "Hg10 mi
4:15 AM70 °FClear.No wind64%30.05 "Hg10 mi
3:55 AM70 °FClear.3 mph64%30.05 "Hg10 mi
3:35 AM70 °FClear.3 mph64%30.05 "Hg10 mi
3:15 AM72 °FClear.3 mph65%30.05 "Hg10 mi
2:55 AM72 °FClear.No wind65%30.05 "Hg10 mi
2:35 AM72 °FClear.3 mph65%30.06 "Hg10 mi
2:15 AM72 °FClear.5 mph65%30.06 "Hg10 mi
1:55 AM72 °FClear.6 mph65%30.06 "Hg10 mi
1:35 AM72 °FClear.7 mph65%30.06 "Hg10 mi
1:15 AM72 °FClear.3 mph65%30.06 "Hg10 mi
12:55 AM73 °FClear.8 mph61%30.05 "Hg10 mi
12:35 AM72 °FClear.5 mph65%30.06 "Hg10 mi
12:15 AM73 °FClear.5 mph61%30.06 "Hg10 mi
11:47 PM
Thu, Sep 29
75 °FClear.5 mph57%30.07 "Hg20 mi
10:50 PM79 °FClear.6 mph48%30.05 "Hg20 mi
9:47 PM79 °FClear.6 mph45%30.05 "Hg20 mi
8:47 PM82 °FPassing clouds.6 mph40%30.03 "Hg20 mi
7:47 PM84 °FPassing clouds.7 mph37%30.02 "Hg20 mi
6:51 PM88 °FPassing clouds.No wind33%30.01 "Hg20 mi
5:47 PM90 °FSunny.7 mph31%30.00 "Hg45 mi
4:50 PM91 °FScattered clouds.No wind28%30.00 "Hg45 mi
3:47 PM91 °FRain showers. Scattered clouds.No wind28%30.02 "HgN/A
2:47 PM90 °FRain showers. Scattered clouds.No wind29%30.05 "HgN/A
1:48 PM88 °FPassing clouds.6 mph33%30.07 "Hg45 mi
12:47 PM86 °FScattered clouds.No wind35%30.09 "Hg45 mi
11:52 AM84 °FBroken clouds.10 mph43%30.11 "Hg45 mi
10:47 AM79 °FBroken clouds.12 mph61%30.12 "Hg45 mi
9:47 AM73 °FScattered showers. More clouds than sun.14 mph78%30.16 "Hg20 mi
8:50 AM73 °FMore clouds than sun.10 mph78%30.15 "Hg20 mi
Weather by CustomWeather, © 2016

See weather overviewHow to use our weather pages